Time,TemperatureF,DewpointF,PressureIn,WindDirection,WindDirectionDegrees,WindSpeedMPH,WindSpeedGustMPH,Humidity,HourlyPrecipIn,Conditions,Clouds,dailyrainin,SoftwareType,DateUTC
2013-06-07 00:04:00,54.6,53.5,29.90,WSW,257,0.0,4.0,96,0.00,,,0.00,Wunderground v.1.15,2013-06-07 05:04:00,
2013-06-07 00:14:00,54.5,53.4,29.90,WSW,257,0.0,4.0,96,0.00,,,0.00,Wunderground v.1.15,2013-06-07 05:14:00,
2013-06-07 00:20:00,54.3,53.2,29.90,WSW,257,0.0,4.0,96,0.00,,,0.00,Wunderground v.1.15,2013-06-07 05:20:00,
2013-06-07 00:29:00,53.9,53.1,29.90,WSW,257,0.0,4.0,97,0.00,,,0.00,Wunderground v.1.15,2013-06-07 05:29:00,
2013-06-07 00:39:00,53.6,52.8,29.90,WSW,257,0.0,4.0,97,0.00,,,0.00,Wunderground v.1.15,2013-06-07 05:39:00,
2013-06-07 00:50:00,53.3,52.5,29.90,WSW,257,0.0,4.0,97,0.00,,,0.00,Wunderground v.1.15,2013-06-07 05:50:00,
2013-06-07 01:00:00,53.1,52.3,29.91,WSW,257,0.0,4.0,97,0.00,,,0.00,Wunderground v.1.15,2013-06-07 06:00:00,
2013-06-07 01:09:00,52.7,51.9,29.91,WSW,257,0.0,4.0,97,0.00,,,0.00,Wunderground v.1.15,2013-06-07 06:09:00,
2013-06-07 01:19:00,53.0,52.5,29.90,WSW,257,0.0,4.0,98,0.00,,,0.00,Wunderground v.1.15,2013-06-07 06:19:00,
2013-06-07 01:30:00,53.1,52.6,29.91,WSW,257,0.0,4.0,98,0.00,,,0.00,Wunderground v.1.15,2013-06-07 06:30:00,
2013-06-07 01:40:00,52.7,52.2,29.91,WSW,257,0.0,4.0,98,0.00,,,0.00,Wunderground v.1.15,2013-06-07 06:40:00,
2013-06-07 01:49:00,52.4,51.6,29.91,WSW,257,0.0,4.0,97,0.00,,,0.00,Wunderground v.1.15,2013-06-07 06:49:00,
2013-06-07 01:59:00,52.1,51.6,29.91,WSW,257,0.0,4.0,98,0.00,,,0.00,Wunderground v.1.15,2013-06-07 06:59:00,
2013-06-07 02:10:00,51.9,51.4,29.91,WSW,257,0.0,4.0,98,0.00,,,0.00,Wunderground v.1.15,2013-06-07 07:10:00,
2013-06-07 02:19:00,51.8,51.3,29.91,WSW,257,0.0,4.0,98,0.00,,,0.00,Wunderground v.1.15,2013-06-07 07:19:00,
2013-06-07 02:29:00,51.7,51.2,29.91,WSW,257,0.0,4.0,98,0.00,,,0.00,Wunderground v.1.15,2013-06-07 07:29:00,
2013-06-07 02:39:00,51.5,51.0,29.91,WSW,257,0.0,4.0,98,0.00,,,0.00,Wunderground v.1.15,2013-06-07 07:39:00,
2013-06-07 02:50:00,51.2,50.7,29.91,WSW,257,0.0,4.0,98,0.00,,,0.00,Wunderground v.1.15,2013-06-07 07:50:00,
2013-06-07 02:59:00,51.0,50.5,29.91,WSW,257,0.0,4.0,98,0.00,,,0.00,Wunderground v.1.15,2013-06-07 07:59:00,
2013-06-07 03:09:00,50.6,50.1,29.90,WSW,257,0.0,4.0,98,0.00,,,0.00,Wunderground v.1.15,2013-06-07 08:09:00,
2013-06-07 03:20:00,50.6,50.1,29.91,WSW,257,0.0,4.0,98,0.00,,,0.00,Wunderground v.1.15,2013-06-07 08:20:00,
2013-06-07 03:30:00,50.4,49.9,29.90,WSW,257,0.0,4.0,98,0.00,,,0.00,Wunderground v.1.15,2013-06-07 08:30:00,
2013-06-07 03:39:00,50.3,49.8,29.90,WSW,257,0.0,4.0,98,0.00,,,0.00,Wunderground v.1.15,2013-06-07 08:39:00,
2013-06-07 03:49:00,49.9,49.4,29.90,WSW,257,0.0,4.0,98,0.00,,,0.00,Wunderground v.1.15,2013-06-07 08:49:00,
2013-06-07 04:00:00,49.4,48.9,29.90,WSW,257,0.0,4.0,98,0.00,,,0.00,Wunderground v.1.15,2013-06-07 09:00:00,
2013-06-07 04:10:00,49.5,49.0,29.90,WSW,257,0.0,4.0,98,0.00,,,0.00,Wunderground v.1.15,2013-06-07 09:10:00,
2013-06-07 04:19:00,49.6,49.3,29.91,WSW,257,0.0,4.0,99,0.00,,,0.00,Wunderground v.1.15,2013-06-07 09:19:00,
2013-06-07 04:29:00,49.6,49.3,29.91,WSW,257,0.0,4.0,99,0.00,,,0.00,Wunderground v.1.15,2013-06-07 09:29:00,
2013-06-07 04:40:00,49.3,48.8,29.91,WSW,257,0.0,4.0,98,0.00,,,0.00,Wunderground v.1.15,2013-06-07 09:40:00,
2013-06-07 04:49:00,49.0,48.5,29.91,WSW,257,0.0,4.0,98,0.00,,,0.00,Wunderground v.1.15,2013-06-07 09:49:00,
2013-06-07 04:59:00,49.4,49.1,29.91,WSW,257,0.0,4.0,99,0.00,,,0.00,Wunderground v.1.15,2013-06-07 09:59:00,
2013-06-07 05:09:00,49.2,48.9,29.92,WSW,257,0.0,4.0,99,0.00,,,0.00,Wunderground v.1.15,2013-06-07 10:09:00,
2013-06-07 05:20:00,49.2,48.9,29.92,WSW,257,0.0,4.0,99,0.00,,,0.00,Wunderground v.1.15,2013-06-07 10:20:00,
2013-06-07 05:29:00,48.8,48.5,29.92,WSW,257,0.0,4.0,99,0.00,,,0.00,Wunderground v.1.15,2013-06-07 10:29:00,
2013-06-07 05:39:00,48.4,48.1,29.92,WSW,257,0.0,4.0,99,0.00,,,0.00,Wunderground v.1.15,2013-06-07 10:39:00,
2013-06-07 05:49:00,48.5,48.2,29.92,WSW,257,0.0,4.0,99,0.00,,,0.00,Wunderground v.1.15,2013-06-07 10:49:00,
2013-06-07 05:55:00,48.3,48.0,29.92,WSW,257,0.0,4.0,99,0.00,,,0.00,Wunderground v.1.15,2013-06-07 10:55:00,
2013-06-07 06:04:00,47.9,47.6,29.92,WSW,257,0.0,4.0,99,0.00,,,0.00,Wunderground v.1.15,2013-06-07 11:04:00,
2013-06-07 06:14:00,48.1,47.8,29.92,WSW,257,0.0,4.0,99,0.00,,,0.00,Wunderground v.1.15,2013-06-07 11:14:00,
2013-06-07 06:24:00,48.8,48.5,29.93,WSW,257,0.0,4.0,99,0.00,,,0.00,Wunderground v.1.15,2013-06-07 11:24:00,
2013-06-07 06:30:00,49.8,49.8,29.93,WSW,257,0.0,4.0,100,0.00,,,0.00,Wunderground v.1.15,2013-06-07 11:30:00,
2013-06-07 06:40:00,51.2,51.2,29.93,WSW,257,0.0,4.0,100,0.00,,,0.00,Wunderground v.1.15,2013-06-07 11:40:00,
2013-06-07 06:49:00,52.0,52.0,29.93,WSW,257,0.0,4.0,100,0.00,,,0.00,Wunderground v.1.15,2013-06-07 11:49:00,
2013-06-07 06:59:00,53.4,53.4,29.93,WSW,257,0.0,4.0,100,0.00,,,0.00,Wunderground v.1.15,2013-06-07 11:59:00,
2013-06-07 07:10:00,53.5,53.2,29.93,WNW,298,0.0,4.0,99,0.00,,,0.01,Wunderground v.1.15,2013-06-07 12:10:00,
2013-06-07 07:20:00,54.3,54.0,29.94,NNE,13,0.0,4.0,99,0.00,,,0.01,Wunderground v.1.15,2013-06-07 12:20:00,
2013-06-07 07:29:00,55.0,54.4,29.94,North,11,0.0,4.0,98,0.00,,,0.01,Wunderground v.1.15,2013-06-07 12:29:00,
2013-06-07 07:39:00,54.6,53.8,29.94,North,11,0.0,4.0,97,0.00,,,0.01,Wunderground v.1.15,2013-06-07 12:39:00,
2013-06-07 07:49:00,55.5,54.9,29.94,NNE,13,0.0,4.0,98,0.00,,,0.01,Wunderground v.1.15,2013-06-07 12:49:00,
2013-06-07 07:54:00,56.5,55.9,29.94,NNE,27,0.0,4.0,98,0.00,,,0.01,Wunderground v.1.15,2013-06-07 12:54:00,
2013-06-07 08:04:00,57.8,57.2,29.94,NE,37,0.0,4.0,98,0.00,,,0.01,Wunderground v.1.15,2013-06-07 13:04:00,
2013-06-07 08:14:00,58.8,58.0,29.94,ESE,111,0.0,4.0,97,0.00,,,0.01,Wunderground v.1.15,2013-06-07 13:14:00,
2013-06-07 08:25:00,59.5,58.6,29.94,ESE,108,0.0,4.0,97,0.00,,,0.01,Wunderground v.1.15,2013-06-07 13:25:00,
2013-06-07 08:34:00,61.6,60.4,29.94,West,269,0.0,4.0,96,0.00,,,0.01,Wunderground v.1.15,2013-06-07 13:34:00,
2013-06-07 08:44:00,62.5,60.1,29.95,SSW,201,0.0,4.0,92,0.00,,,0.01,Wunderground v.1.15,2013-06-07 13:44:00,
2013-06-07 08:54:00,64.2,61.8,29.94,SW,221,0.0,4.0,92,0.00,,,0.01,Wunderground v.1.15,2013-06-07 13:54:00,
2013-06-07 09:04:00,65.5,61.5,29.95,WSW,258,1.0,4.0,87,0.00,,,0.01,Wunderground v.1.15,2013-06-07 14:04:00,
2013-06-07 09:10:00,65.2,60.9,29.95,WNW,297,1.0,4.0,86,0.00,,,0.01,Wunderground v.1.15,2013-06-07 14:10:00,
2013-06-07 09:20:00,65.8,62.1,29.95,South,173,1.0,1.0,88,0.00,,,0.01,Wunderground v.1.15,2013-06-07 14:20:00,
2013-06-07 09:29:00,66.9,62.2,29.95,West,276,0.0,4.0,85,0.00,,,0.01,Wunderground v.1.15,2013-06-07 14:29:00,
2013-06-07 09:39:00,68.3,62.2,29.95,NW,308,1.0,4.0,81,0.00,,,0.01,Wunderground v.1.15,2013-06-07 14:39:00,
2013-06-07 09:50:00,68.5,61.4,29.95,WSW,254,0.0,4.0,78,0.00,,,0.01,Wunderground v.1.15,2013-06-07 14:50:00,
2013-06-07 09:59:00,67.8,60.7,29.95,WSW,242,1.0,4.0,78,0.00,,,0.01,Wunderground v.1.15,2013-06-07 14:59:00,
2013-06-07 10:09:00,67.8,60.3,29.94,WNW,285,1.0,4.0,77,0.00,,,0.01,Wunderground v.1.15,2013-06-07 15:09:00,
2013-06-07 10:19:00,68.7,61.2,29.94,WSW,243,1.0,1.0,77,0.00,,,0.01,Wunderground v.1.15,2013-06-07 15:19:00,
2013-06-07 10:30:00,69.7,61.0,29.94,West,269,1.0,1.0,74,0.00,,,0.01,Wunderground v.1.15,2013-06-07 15:30:00,
2013-06-07 10:39:00,70.7,61.6,29.94,East,87,1.0,1.0,73,0.00,,,0.01,Wunderground v.1.15,2013-06-07 15:39:00,
2013-06-07 10:49:00,70.3,60.1,29.94,WSW,255,2.0,2.0,70,0.00,,,0.01,Wunderground v.1.15,2013-06-07 15:49:00,
2013-06-07 11:00:00,70.8,60.5,29.94,NW,318,2.0,4.0,70,0.00,,,0.01,Wunderground v.1.15,2013-06-07 16:00:00,
2013-06-07 11:10:00,70.8,60.1,29.94,WNW,296,2.0,2.0,69,0.00,,,0.01,Wunderground v.1.15,2013-06-07 16:10:00,
2013-06-07 11:19:00,71.4,59.9,29.94,NNW,345,3.0,4.0,67,0.00,,,0.01,Wunderground v.1.15,2013-06-07 16:19:00,
2013-06-07 11:29:00,70.8,58.0,29.94,SSW,210,4.0,5.0,64,0.00,,,0.01,Wunderground v.1.15,2013-06-07 16:29:00,
2013-06-07 11:40:00,69.5,58.1,29.94,West,277,2.0,2.0,67,0.00,,,0.01,Wunderground v.1.15,2013-06-07 16:40:00,
2013-06-07 11:50:00,68.5,58.3,29.94,West,272,1.0,1.0,70,0.00,,,0.01,Wunderground v.1.15,2013-06-07 16:50:00,
2013-06-07 11:59:00,69.9,59.7,29.94,SW,218,1.0,4.0,70,0.00,,,0.01,Wunderground v.1.15,2013-06-07 16:59:00,
2013-06-07 12:09:00,70.9,60.2,29.94,WSW,242,3.0,3.0,69,0.00,,,0.01,Wunderground v.1.15,2013-06-07 17:09:00,
2013-06-07 12:20:00,70.5,59.4,29.94,WSW,243,1.0,1.0,68,0.00,,,0.01,Wunderground v.1.15,2013-06-07 17:20:00,
2013-06-07 12:29:00,69.9,59.3,29.93,SSW,193,1.0,4.0,69,0.00,,,0.01,Wunderground v.1.15,2013-06-07 17:29:00,
2013-06-07 12:39:00,71.5,60.8,29.93,WNW,293,2.0,2.0,69,0.00,,,0.01,Wunderground v.1.15,2013-06-07 17:39:00,
2013-06-07 12:49:00,72.1,60.5,29.93,WNW,292,1.0,4.0,67,0.00,,,0.01,Wunderground v.1.15,2013-06-07 17:49:00,
2013-06-07 12:54:00,71.8,60.2,29.93,WSW,253,1.0,4.0,67,0.00,,,0.01,Wunderground v.1.15,2013-06-07 17:54:00,
2013-06-07 13:04:00,71.7,60.6,29.93,ENE,62,2.0,2.0,68,0.00,,,0.01,Wunderground v.1.15,2013-06-07 18:04:00,
2013-06-07 13:14:00,72.5,60.9,29.93,WSW,252,2.0,4.0,67,0.00,,,0.01,Wunderground v.1.15,2013-06-07 18:14:00,
2013-06-07 13:25:00,72.5,58.7,29.92,West,281,2.0,4.0,62,0.00,,,0.01,Wunderground v.1.15,2013-06-07 18:25:00,
2013-06-07 13:34:00,73.1,60.6,29.92,ESE,120,2.0,4.0,65,0.00,,,0.01,Wunderground v.1.15,2013-06-07 18:34:00,
2013-06-07 13:45:00,72.6,59.3,29.92,WSW,253,1.0,4.0,63,0.00,,,0.01,Wunderground v.1.15,2013-06-07 18:45:00,
2013-06-07 13:54:00,71.1,58.3,29.92,South,179,2.0,4.0,64,0.00,,,0.01,Wunderground v.1.15,2013-06-07 18:54:00,
2013-06-07 14:09:00,71.1,57.0,29.91,WNW,294,1.0,7.0,61,0.00,,,0.01,Wunderground v.1.15,2013-06-07 19:09:00,
2013-06-07 14:19:00,71.8,58.1,29.91,NNW,329,2.0,2.0,62,0.00,,,0.01,Wunderground v.1.15,2013-06-07 19:19:00,
2013-06-07 14:25:00,72.4,57.7,29.90,West,260,1.0,4.0,60,0.00,,,0.01,Wunderground v.1.15,2013-06-07 19:25:00,
2013-06-07 14:34:00,72.6,59.3,29.90,West,264,2.0,4.0,63,0.00,,,0.01,Wunderground v.1.15,2013-06-07 19:34:00,
2013-06-07 14:44:00,73.0,57.8,29.90,WSW,256,2.0,4.0,59,0.00,,,0.01,Wunderground v.1.15,2013-06-07 19:44:00,
2013-06-07 14:54:00,73.8,57.6,29.90,NNW,329,3.0,5.0,57,0.00,,,0.01,Wunderground v.1.15,2013-06-07 19:54:00,
2013-06-07 15:10:00,75.1,57.8,29.90,WSW,246,1.0,1.0,55,0.00,,,0.01,Wunderground v.1.15,2013-06-07 20:10:00,
2013-06-07 15:19:00,75.4,58.6,29.89,NNW,327,1.0,1.0,56,0.00,,,0.01,Wunderground v.1.15,2013-06-07 20:19:00,
2013-06-07 15:34:00,72.4,55.8,29.89,West,281,1.0,7.0,56,0.00,,,0.01,Wunderground v.1.15,2013-06-07 20:34:00,
2013-06-07 15:44:00,72.0,55.4,29.90,WNW,293,3.0,3.0,56,0.00,,,0.01,Wunderground v.1.15,2013-06-07 20:44:00,
2013-06-07 15:49:00,71.6,55.6,29.89,West,266,2.0,2.0,57,0.00,,,0.01,Wunderground v.1.15,2013-06-07 20:49:00,
2013-06-07 15:59:00,72.6,57.9,29.89,SSE,149,1.0,1.0,60,0.00,,,0.01,Wunderground v.1.15,2013-06-07 20:59:00,
2013-06-07 16:14:00,74.6,58.4,29.89,WNW,290,1.0,4.0,57,0.00,,,0.01,Wunderground v.1.15,2013-06-07 21:14:00,
2013-06-07 16:25:00,74.9,57.6,29.89,SSE,163,1.0,4.0,55,0.00,,,0.01,Wunderground v.1.15,2013-06-07 21:25:00,
2013-06-07 16:39:00,75.2,57.4,29.88,NNE,13,1.0,5.0,54,0.00,,,0.01,Wunderground v.1.15,2013-06-07 21:39:00,
2013-06-07 16:55:00,75.0,56.2,29.88,WSW,249,1.0,4.0,52,0.00,,,0.01,Wunderground v.1.15,2013-06-07 21:55:00,
2013-06-07 17:04:00,75.0,56.7,29.88,SSW,204,1.0,4.0,53,0.00,,,0.01,Wunderground v.1.15,2013-06-07 22:04:00,
2013-06-07 17:19:00,74.5,55.7,29.88,WSW,238,1.0,4.0,52,0.00,,,0.01,Wunderground v.1.15,2013-06-07 22:19:00,
2013-06-07 17:34:00,74.8,58.1,29.88,SSW,204,2.0,4.0,56,0.00,,,0.01,Wunderground v.1.15,2013-06-07 22:34:00,
2013-06-07 17:39:00,74.3,56.1,29.88,West,274,1.0,4.0,53,0.00,,,0.01,Wunderground v.1.15,2013-06-07 22:39:00,
2013-06-07 17:49:00,73.5,55.8,29.88,NW,316,2.0,4.0,54,0.00,,,0.01,Wunderground v.1.15,2013-06-07 22:49:00,
2013-06-07 17:59:00,72.2,55.1,29.88,WNW,301,0.0,4.0,55,0.00,,,0.01,Wunderground v.1.15,2013-06-07 22:59:00,
2013-06-07 18:10:00,72.7,55.6,29.88,West,271,0.0,5.0,55,0.00,,,0.01,Wunderground v.1.15,2013-06-07 23:10:00,
2013-06-07 18:19:00,72.5,55.9,29.87,WNW,298,2.0,4.0,56,0.00,,,0.01,Wunderground v.1.15,2013-06-07 23:19:00,
2013-06-07 18:29:00,72.2,56.1,29.87,West,264,0.0,4.0,57,0.00,,,0.01,Wunderground v.1.15,2013-06-07 23:29:00,
2013-06-07 18:39:00,71.8,55.3,29.87,NW,312,1.0,4.0,56,0.00,,,0.01,Wunderground v.1.15,2013-06-07 23:39:00,
2013-06-07 18:55:00,71.2,56.1,29.87,NW,311,0.0,4.0,59,0.00,,,0.01,Wunderground v.1.15,2013-06-07 23:55:00,
2013-06-07 19:14:00,70.0,55.5,29.87,West,273,0.0,4.0,60,0.00,,,0.01,Wunderground v.1.15,2013-06-08 00:14:00,
2013-06-07 19:24:00,69.4,55.8,29.87,WSW,240,0.0,4.0,62,0.00,,,0.01,Wunderground v.1.15,2013-06-08 00:24:00,
2013-06-07 19:34:00,68.7,55.2,29.87,NNW,333,0.0,4.0,62,0.00,,,0.01,Wunderground v.1.15,2013-06-08 00:34:00,
2013-06-07 19:44:00,67.9,55.7,29.87,NW,309,0.0,4.0,65,0.00,,,0.01,Wunderground v.1.15,2013-06-08 00:44:00,
2013-06-07 19:55:00,66.6,55.3,29.87,NW,309,0.0,4.0,67,0.00,,,0.01,Wunderground v.1.15,2013-06-08 00:55:00,
2013-06-07 20:04:00,65.3,55.3,29.87,NW,309,0.0,4.0,70,0.00,,,0.01,Wunderground v.1.15,2013-06-08 01:04:00,
2013-06-07 20:14:00,64.2,55.4,29.87,NW,309,0.0,4.0,73,0.00,,,0.01,Wunderground v.1.15,2013-06-08 01:14:00,
2013-06-07 20:29:00,62.3,55.4,29.88,NW,309,0.0,4.0,78,0.00,,,0.01,Wunderground v.1.15,2013-06-08 01:29:00,
2013-06-07 20:35:00,61.5,54.9,29.88,NW,309,0.0,4.0,79,0.00,,,0.01,Wunderground v.1.15,2013-06-08 01:35:00,
2013-06-07 20:49:00,59.7,54.2,29.89,NW,309,0.0,4.0,82,0.00,,,0.01,Wunderground v.1.15,2013-06-08 01:49:00,
2013-06-07 20:59:00,58.6,53.8,29.89,NW,309,0.0,4.0,84,0.00,,,0.01,Wunderground v.1.15,2013-06-08 01:59:00,
2013-06-07 21:14:00,57.1,53.0,29.89,NW,309,0.0,4.0,86,0.00,,,0.01,Wunderground v.1.15,2013-06-08 02:14:00,
2013-06-07 21:25:00,56.6,53.4,29.90,NW,309,0.0,4.0,89,0.00,,,0.01,Wunderground v.1.15,2013-06-08 02:25:00,
2013-06-07 21:34:00,56.2,53.0,29.91,NW,309,0.0,4.0,89,0.00,,,0.01,Wunderground v.1.15,2013-06-08 02:34:00,
2013-06-07 21:44:00,55.8,53.2,29.91,NW,309,0.0,4.0,91,0.00,,,0.01,Wunderground v.1.15,2013-06-08 02:44:00,
2013-06-07 21:54:00,55.6,53.0,29.91,NW,309,0.0,4.0,91,0.00,,,0.01,Wunderground v.1.15,2013-06-08 02:54:00,
2013-06-07 22:04:00,55.0,52.4,29.91,NW,309,0.0,4.0,91,0.00,,,0.01,Wunderground v.1.15,2013-06-08 03:04:00,
2013-06-07 22:10:00,54.7,52.1,29.91,NW,309,0.0,4.0,91,0.00,,,0.01,Wunderground v.1.15,2013-06-08 03:10:00,
2013-06-07 22:19:00,54.7,52.7,29.91,NW,309,0.0,4.0,93,0.00,,,0.01,Wunderground v.1.15,2013-06-08 03:19:00,
2013-06-07 22:29:00,54.4,52.4,29.91,NW,309,0.0,4.0,93,0.00,,,0.01,Wunderground v.1.15,2013-06-08 03:29:00,
2013-06-07 22:44:00,53.7,51.7,29.91,NW,309,0.0,4.0,93,0.00,,,0.01,Wunderground v.1.15,2013-06-08 03:44:00,
2013-06-07 22:50:00,53.7,52.0,29.91,NW,309,0.0,4.0,94,0.00,,,0.01,Wunderground v.1.15,2013-06-08 03:50:00,
2013-06-07 22:59:00,53.6,52.2,29.91,NW,309,0.0,4.0,95,0.00,,,0.01,Wunderground v.1.15,2013-06-08 03:59:00,
2013-06-07 23:04:00,53.6,52.2,29.91,NW,309,0.0,4.0,95,0.00,,,0.01,Wunderground v.1.15,2013-06-08 04:04:00,
2013-06-07 23:09:00,53.6,52.2,29.91,NW,309,0.0,4.0,95,0.00,,,0.01,Wunderground v.1.15,2013-06-08 04:09:00,
2013-06-07 23:19:00,53.0,51.3,29.92,NW,309,0.0,4.0,94,0.00,,,0.01,Wunderground v.1.15,2013-06-08 04:19:00,
2013-06-07 23:24:00,52.8,51.4,29.92,NW,309,0.0,4.0,95,0.00,,,0.01,Wunderground v.1.15,2013-06-08 04:24:00,
2013-06-07 23:30:00,52.9,51.5,29.92,NW,309,0.0,4.0,95,0.00,,,0.01,Wunderground v.1.15,2013-06-08 04:30:00,
2013-06-07 23:39:00,52.5,51.1,29.92,NW,309,0.0,4.0,95,0.00,,,0.01,Wunderground v.1.15,2013-06-08 04:39:00,
2013-06-07 23:49:00,52.1,50.7,29.92,NW,309,0.0,4.0,95,0.00,,,0.01,Wunderground v.1.15,2013-06-08 04:49:00,
2013-06-07 23:59:00,51.6,50.2,29.92,NW,309,0.0,4.0,95,0.00,,,0.01,Wunderground v.1.15,2013-06-08 04:59:00,